Hourly Weather Chandannagar

Today, 16 June, Wednesday

Time Temperature Precipitation Wind Pressure Humidity
00:00 +29°C° 0 mm 2 mps 746 mmHg 85%
01:00 +29°C° 0.3 mm 2 mps 746 mmHg 85%
02:00 +29°C° 0.3 mm 1 mps 746 mmHg 85%
03:00 +29°C° 0.3 mm 1 mps 745 mmHg 86%
04:00 +29°C° 0.8 mm 1 mps 746 mmHg 86%
05:00 +29°C° 0.8 mm 1 mps 746 mmHg 86%
06:00 +29°C° 0.8 mm 2 mps 746 mmHg 86%
07:00 +29°C° 0.3 mm 2 mps 746 mmHg 82%
08:00 +30°C° 0.3 mm 3 mps 747 mmHg 79%
09:00 +31°C° 0.3 mm 3 mps 747 mmHg 76%
10:00 +31°C° 0.2 mm 3 mps 747 mmHg 73%
11:00 +33°C° 0.2 mm 3 mps 747 mmHg 70%
12:00 +34°C° 0.2 mm 3 mps 747 mmHg 67%
13:00 +33°C° 0.7 mm 3 mps 747 mmHg 67%
14:00 +33°C° 0.7 mm 3 mps 746 mmHg 68%
15:00 +33°C° 0.7 mm 3 mps 746 mmHg 69%
16:00 +31°C° 0.3 mm 3 mps 746 mmHg 71%
17:00 +31°C° 0.3 mm 3 mps 746 mmHg 72%
18:00 +30°C° 0.3 mm 2 mps 746 mmHg 74%
19:00 +30°C° 0.3 mm 3 mps 747 mmHg 76%
20:00 +30°C° 0.3 mm 3 mps 747 mmHg 79%
21:00 +29°C° 0.3 mm 3 mps 748 mmHg 81%
22:00 +29°C° 0.3 mm 3 mps 748 mmHg 82%
23:00 +29°C° 0.3 mm 3 mps 748 mmHg 84%

Tomorrow, 17 June, Thursday

Time Temperature Precipitation Wind Pressure Humidity
00:00 +29°C° 0.3 mm 3 mps 748 mmHg 85%
01:00 +29°C° 0.9 mm 3 mps 747 mmHg 85%
02:00 +29°C° 0.9 mm 3 mps 747 mmHg 85%
03:00 +28°C° 0.9 mm 3 mps 747 mmHg 86%
04:00 +28°C° 0.9 mm 3 mps 747 mmHg 87%
05:00 +28°C° 0.9 mm 3 mps 747 mmHg 87%
06:00 +28°C° 0.9 mm 3 mps 747 mmHg 88%
07:00 +28°C° 0.4 mm 3 mps 748 mmHg 88%
08:00 +28°C° 0.4 mm 3 mps 748 mmHg 88%
09:00 +28°C° 0.4 mm 3 mps 749 mmHg 88%
10:00 +29°C° 0.1 mm 2 mps 748 mmHg 85%
11:00 +29°C° 0.1 mm 2 mps 748 mmHg 81%
12:00 +30°C° 0.1 mm 1 mps 748 mmHg 78%
13:00 +31°C° 0.3 mm 2 mps 747 mmHg 73%
14:00 +32°C° 0.3 mm 2 mps 747 mmHg 68%
15:00 +34°C° 0.3 mm 3 mps 746 mmHg 63%
16:00 +34°C° 0.5 mm 3 mps 746 mmHg 68%
17:00 +33°C° 0.5 mm 3 mps 746 mmHg 72%
18:00 +31°C° 0.5 mm 3 mps 746 mmHg 77%
19:00 +30°C° 0.9 mm 3 mps 747 mmHg 79%
20:00 +30°C° 0.9 mm 2 mps 748 mmHg 82%
21:00 +29°C° 0.9 mm 1 mps 748 mmHg 84%
22:00 +29°C° 0.1 mm 1 mps 748 mmHg 86%
23:00 +29°C° 0.1 mm 1 mps 748 mmHg 87%

Day after tomorrow, 18 June, Friday

Time Temperature Precipitation Wind Pressure Humidity
00:00 +29°C° 0.1 mm 1 mps 748 mmHg 88%
01:00 +28°C° 0 mm 1 mps 748 mmHg 89%
02:00 +28°C° 0 mm 1 mps 747 mmHg 90%
03:00 +28°C° 0 mm 1 mps 747 mmHg 91%
04:00 +28°C° 0 mm 1 mps 747 mmHg 91%
05:00 +28°C° 0 mm 1 mps 747 mmHg 92%
06:00 +28°C° 0 mm 1 mps 747 mmHg 92%
07:00 +29°C° 0.4 mm 2 mps 748 mmHg 86%
08:00 +30°C° 0.4 mm 3 mps 748 mmHg 80%
09:00 +32°C° 0.4 mm 4 mps 748 mmHg 75%
10:00 +33°C° 0.6 mm 4 mps 748 mmHg 71%
11:00 +34°C° 0.6 mm 4 mps 747 mmHg 68%
12:00 +34°C° 0.6 mm 4 mps 747 mmHg 65%
13:00 +34°C° 1.3 mm 5 mps 747 mmHg 65%
14:00 +34°C° 1.3 mm 5 mps 746 mmHg 66%
15:00 +34°C° 1.3 mm 6 mps 746 mmHg 66%
16:00 +33°C° 1.3 mm 5 mps 746 mmHg 72%
17:00 +32°C° 1.3 mm 5 mps 746 mmHg 77%
18:00 +30°C° 1.3 mm 4 mps 747 mmHg 83%
19:00 +29°C° 0.5 mm 4 mps 747 mmHg 85%
20:00 +29°C° 0.5 mm 3 mps 748 mmHg 87%
21:00 +28°C° 0.5 mm 3 mps 748 mmHg 90%
22:00 +28°C° 0.1 mm 3 mps 748 mmHg 90%
23:00 +28°C° 0.1 mm 3 mps 748 mmHg 91%

19 June, Saturday

Time Temperature Precipitation Wind Pressure Humidity
00:00 +28°C° 0.1 mm 2 mps 748 mmHg 91%
01:00 +28°C° 0.2 mm 2 mps 747 mmHg 92%
02:00 +28°C° 0.2 mm 2 mps 746 mmHg 92%
03:00 +28°C° 0.2 mm 2 mps 746 mmHg 92%
04:00 +28°C° 0.4 mm 2 mps 746 mmHg 92%
05:00 +28°C° 0.4 mm 2 mps 746 mmHg 93%
06:00 +28°C° 0.4 mm 2 mps 747 mmHg 93%
07:00 +28°C° 0.6 mm 3 mps 747 mmHg 91%
08:00 +29°C° 0.6 mm 3 mps 747 mmHg 89%
09:00 +29°C° 0.6 mm 3 mps 747 mmHg 87%
10:00 +29°C° 1.1 mm 3 mps 747 mmHg 87%
11:00 +29°C° 1.1 mm 3 mps 747 mmHg 87%
12:00 +29°C° 1.1 mm 2 mps 747 mmHg 87%
13:00 +29°C° 1.1 mm 2 mps 747 mmHg 86%
14:00 +29°C° 1.1 mm 2 mps 746 mmHg 84%
15:00 +30°C° 1.1 mm 1 mps 746 mmHg 83%
16:00 +29°C° 1 mm 2 mps 746 mmHg 85%
17:00 +29°C° 1 mm 2 mps 746 mmHg 88%
18:00 +28°C° 1 mm 2 mps 746 mmHg 91%
19:00 +28°C° 0.3 mm 2 mps 747 mmHg 91%
20:00 +28°C° 0.3 mm 2 mps 747 mmHg 91%
21:00 +28°C° 0.3 mm 3 mps 748 mmHg 92%
22:00 +28°C° 0.3 mm 3 mps 748 mmHg 92%
23:00 +28°C° 0.3 mm 3 mps 748 mmHg 92%

20 June, Sunday

Time Temperature Precipitation Wind Pressure Humidity
00:00 +28°C° 0.3 mm 4 mps 748 mmHg 92%
01:00 +27°C° 0.2 mm 3 mps 747 mmHg 92%
02:00 +27°C° 0.2 mm 3 mps 747 mmHg 92%
03:00 +27°C° 0.2 mm 2 mps 747 mmHg 93%
04:00 +27°C° 0 mm 2 mps 747 mmHg 92%
05:00 +27°C° 0 mm 2 mps 747 mmHg 91%
06:00 +27°C° 0 mm 2 mps 748 mmHg 91%
07:00 +28°C° 0.1 mm 2 mps 748 mmHg 86%
08:00 +29°C° 0.1 mm 3 mps 749 mmHg 81%
09:00 +30°C° 0.1 mm 4 mps 749 mmHg 76%
10:00 +32°C° 0.1 mm 4 mps 749 mmHg 73%
11:00 +33°C° 0.1 mm 4 mps 749 mmHg 70%
12:00 +34°C° 0.1 mm 4 mps 749 mmHg 66%
13:00 +34°C° 0.4 mm 4 mps 748 mmHg 65%
14:00 +34°C° 0.4 mm 5 mps 748 mmHg 63%
15:00 +35°C° 0.4 mm 5 mps 747 mmHg 61%
16:00 +34°C° 0.1 mm 6 mps 747 mmHg 64%
17:00 +34°C° 0.1 mm 6 mps 747 mmHg 66%
18:00 +33°C° 0.1 mm 6 mps 748 mmHg 69%
19:00 +32°C° 0 mm 6 mps 748 mmHg 72%
20:00 +32°C° 0 mm 5 mps 749 mmHg 75%
21:00 +30°C° 0 mm 5 mps 749 mmHg 78%
22:00 +30°C° 0 mm 4 mps 749 mmHg 80%
23:00 +29°C° 0 mm 4 mps 749 mmHg 81%

21 June, Monday

Time Temperature Precipitation Wind Pressure Humidity
00:00 +29°C° 0 mm 3 mps 749 mmHg 82%
01:00 +29°C° 0 mm 3 mps 749 mmHg 83%
02:00 +29°C° 0 mm 2 mps 748 mmHg 85%
03:00 +28°C° 0 mm 2 mps 748 mmHg 86%
04:00 +28°C° 0 mm 2 mps 748 mmHg 86%
05:00 +28°C° 0 mm 2 mps 748 mmHg 87%
06:00 +28°C° 0 mm 2 mps 748 mmHg 87%
07:00 +29°C° 0.1 mm 2 mps 749 mmHg 81%
08:00 +31°C° 0.1 mm 2 mps 749 mmHg 74%
09:00 +32°C° 0.1 mm 2 mps 749 mmHg 68%
10:00 +32°C° 0.3 mm 2 mps 749 mmHg 66%
11:00 +34°C° 0.3 mm 3 mps 749 mmHg 64%
12:00 +34°C° 0.3 mm 3 mps 748 mmHg 63%
13:00 +35°C° 0.3 mm 3 mps 748 mmHg 61%
14:00 +35°C° 0.3 mm 3 mps 747 mmHg 59%
15:00 +36°C° 0.3 mm 2 mps 747 mmHg 58%
16:00 +35°C° 0.4 mm 3 mps 747 mmHg 62%
17:00 +34°C° 0.4 mm 3 mps 747 mmHg 66%
18:00 +33°C° 0.4 mm 4 mps 747 mmHg 70%
19:00 +33°C° 0.2 mm 4 mps 747 mmHg 72%
20:00 +32°C° 0.2 mm 4 mps 747 mmHg 73%
21:00 +30°C° 0.2 mm 4 mps 748 mmHg 75%
22:00 +30°C° 0 mm 4 mps 748 mmHg 77%
23:00 +30°C° 0 mm 4 mps 748 mmHg 79%
Show more

We Need Your Consent

Meteoprog and our Service Providers may store and access personal data such as cookies, device identifiers or other similar technologies on your device and process such data to personalise content and ads, as well as provide social media features and to analyse the traffic.

  • Store and/or access information on your device

    Cookies, device identifiers or other information can be stored or accessed on your device for the purposes indicated above.

  • Personalised ads and content, ad and content measurement, audience insights, and products development

    Ads and content can be personalised based on a profile. More data can be added to better personalise ads and content. Ad and content performance can be measured. Insights about the audience who saw the ads and content can be derived. Such data can be used to develop or improve user’s experience, systems and software.

By clicking ‘I Agree’ you will allow the use of indicated cookies, device identifiers, web beacons or other similar technologies. Your settings can be changed in the browser on your device.

For certain purposes, legitimate interests may be relied on, rather than consent. You can read more about this in our Privacy and Cookie Policy.